GW1943 Weather Reports


Display with metric or nautical units.
time (UTC)temp
F
wind
direction
speed
MPH
gust
MPH
rain 1hr
in
rain 24hr
in
rain mn
in
humidity
%
barometer
mb
20260504193339 75 221 0.0 3.0 0.00 0.00 0.00 48 1012.1
20260504192838 75 215 3.0 3.0 0.00 0.00 0.00 46 1012.2
20260504192335 75 220 1.0 3.0 0.00 0.00 0.00 48 1012.3
20260504191833 74 231 2.0 3.0 0.00 0.00 0.00 50 1012.3
20260504191331 74 222 2.0 5.0 0.00 0.00 0.00 48 1012.5
20260504190826 73 246 2.0 3.0 0.00 0.00 0.00 49 1012.3
20260504190322 73 216 1.0 3.0 0.00 0.00 0.00 53 1012.1
20260504185819 73 223 1.0 3.0 0.00 0.00 0.00 53 1012.5
20260504185316 73 240 3.0 6.0 0.00 0.00 0.00 52 1012.6
20260504184812 73 236 2.0 3.0 0.00 0.00 0.00 52 1012.3
20260504184308 73 243 3.0 5.0 0.00 0.00 0.00 51 1012.3
20260504183804 73 228 1.0 5.0 0.00 0.00 0.00 53 1012.2
20260504183301 72 229 2.0 5.0 0.00 0.00 0.00 54 1012.3
20260504182759 72 221 1.0 2.0 0.00 0.00 0.00 54 1012.2
20260504182256 72 219 1.0 2.0 0.00 0.00 0.00 56 1012.8
20260504181753 71 230 1.0 3.0 0.00 0.00 0.00 56 1012.1
20260504181250 71 242 3.0 5.0 0.00 0.00 0.00 57 1012.7
20260504180750 71 224 1.0 3.0 0.00 0.00 0.00 57 1012.6
20260504180248 70 233 2.0 2.0 0.00 0.00 0.00 56 1012.6
20260504175745 70 220 1.0 3.0 0.00 0.00 0.00 59 1012.6
20260504175242 69 220 2.0 2.0 0.00 0.00 0.00 58 1012.7
20260504174740 69 230 2.0 3.0 0.00 0.00 0.00 58 1012.5
20260504174237 69 226 0.0 2.0 0.00 0.00 0.00 60 1012.6
20260504173733 69 223 0.0 2.0 0.00 0.00 0.00 62 1012.6
20260504173231 68 233 1.0 2.0 0.00 0.00 0.00 62 1012.6
20260504172727 68 234 1.0 2.0 0.00 0.00 0.00 63 1012.5
20260504172224 67 223 1.0 3.0 0.00 0.00 0.00 63 1012.2
20260504171720 67 226 1.0 2.0 0.00 0.00 0.00 63 1012.3
20260504171217 67 233 1.0 3.0 0.00 0.00 0.00 64 1012.6
20260504170714 66 233 2.0 2.0 0.00 0.00 0.00 63 1012.3
20260504170212 66 227 0.0 2.0 0.00 0.00 0.00 66 1012.3
20260504160130 62 224 1.0 2.0 0.00 0.00 0.00 73 1012.2
20260504151057 57 220 1.0 1.0 0.00 0.00 0.00 82 1012.0
20260504150555 57 213 0.0 1.0 0.00 0.00 0.00 83 1011.8
20260504141021 53 203 0.0 0.0 0.00 0.00 0.00 90 1011.5
20260504140517 52 203 0.0 0.0 0.00 0.00 0.00 90 1011.6
20260504130442 51 203 0.0 0.0 0.00 0.00 0.00 89 1011.0
20260504110328 52 202 0.0 0.0 0.00 0.00 0.00 85 1011.0
20260504100246 54 202 0.0 0.0 0.00 0.00 0.00 82 1011.1
20260504081639 58 202 0.0 0.0 0.00 0.00 0.00 72 1010.7
20260504081135 58 202 0.0 0.0 0.00 0.00 0.00 72 1010.9
20260504080632 58 202 0.0 0.0 0.00 0.00 0.00 72 1011.1
20260504080128 58 202 0.0 0.0 0.00 0.00 0.00 73 1011.1
20260504050445 65 204 0.0 0.0 0.00 0.00 0.00 56 1010.8
20260504045942 65 204 0.0 0.0 0.00 0.00 0.00 56 1010.9
20260504045438 65 204 0.0 0.0 0.00 0.00 0.00 57 1011.0
20260504044934 65 204 0.0 0.0 0.00 0.00 0.00 59 1011.0
20260504044432 65 204 0.0 0.0 0.00 0.00 0.00 61 1010.9
20260504043929 65 204 0.0 0.0 0.00 0.00 0.00 64 1011.1
20260504043426 65 204 0.0 0.0 0.00 0.00 0.00 65 1011.0
20260504042923 65 204 0.0 0.0 0.00 0.00 0.00 66 1011.0
20260504042420 65 204 0.0 0.0 0.00 0.00 0.00 68 1010.8
20260504041916 65 204 0.0 0.0 0.00 0.00 0.00 67 1011.0
20260504041412 65 195 0.0 0.0 0.00 0.00 0.00 67 1010.8
20260504040908 66 195 0.0 0.0 0.00 0.00 0.00 66 1010.9
20260504040407 66 195 0.0 0.0 0.00 0.00 0.00 64 1010.8
20260504035902 67 195 0.0 0.0 0.00 0.00 0.00 63 1010.8
20260504035400 67 195 0.0 0.0 0.00 0.00 0.00 61 1010.9
20260504034856 68 195 0.0 0.0 0.00 0.00 0.00 60 1010.9
20260504034354 69 195 0.0 0.0 0.00 0.00 0.00 59 1011.0
20260504033850 69 195 0.0 0.0 0.00 0.00 0.00 58 1010.6
20260504033349 70 194 0.0 0.0 0.00 0.00 0.00 55 1010.7
20260504032845 70 223 0.0 1.0 0.00 0.00 0.00 56 1010.6
20260504032342 71 201 0.0 0.0 0.00 0.00 0.00 55 1010.7
20260504031839 72 201 0.0 0.0 0.00 0.00 0.00 53 1010.7
20260504031336 73 194 0.0 2.0 0.00 0.00 0.00 51 1010.8
20260504030832 74 207 0.0 1.0 0.00 0.00 0.00 51 1010.5
20260504030330 75 215 0.0 0.0 0.00 0.00 0.00 49 1010.8
20260504025826 75 216 1.0 2.0 0.00 0.00 0.00 48 1010.6
20260504025323 76 193 1.0 2.0 0.00 0.00 0.00 48 1010.8
20260504024819 76 197 0.0 1.0 0.00 0.00 0.00 47 1010.8
20260504024316 77 213 0.0 1.0 0.00 0.00 0.00 45 1010.9
20260504023813 77 218 1.0 2.0 0.00 0.00 0.00 44 1010.7
20260504023309 78 209 0.0 0.0 0.00 0.00 0.00 43 1010.7
20260504022805 79 192 0.0 2.0 0.00 0.00 0.00 43 1010.6
20260504022304 79 215 0.0 2.0 0.00 0.00 0.00 43 1010.7
20260504021758 80 199 0.0 1.0 0.00 0.00 0.00 45 1010.8
20260504021256 79 200 1.0 2.0 0.00 0.00 0.00 43 1010.7
20260504020753 80 198 1.0 2.0 0.00 0.00 0.00 42 1010.9
20260504020249 80 179 1.0 2.0 0.00 0.00 0.00 41 1010.7
20260504015745 80 191 1.0 2.0 0.00 0.00 0.00 40 1010.8
20260504015242 80 197 0.0 3.0 0.00 0.00 0.00 41 1010.9
20260504014738 81 217 0.0 2.0 0.00 0.00 0.00 41 1010.8
20260504014234 82 204 0.0 3.0 0.00 0.00 0.00 42 1011.1
20260504013732 82 201 0.0 2.0 0.00 0.00 0.00 40 1010.9
20260504013230 82 63 1.0 2.0 0.00 0.00 0.00 40 1010.9
20260504012726 82 201 0.0 2.0 0.00 0.00 0.00 42 1010.9
20260504012224 83 241 0.0 3.0 0.00 0.00 0.00 41 1010.9
20260504011721 82 215 1.0 2.0 0.00 0.00 0.00 41 1011.0
20260504011218 83 205 1.0 1.0 0.00 0.00 0.00 39 1010.8
20260504010714 83 147 2.0 3.0 0.00 0.00 0.00 39 1011.1
20260504010210 84 224 1.0 1.0 0.00 0.00 0.00 39 1011.1
20260504005706 84 192 0.0 2.0 0.00 0.00 0.00 40 1010.9
20260504005203 84 57 2.0 3.0 0.00 0.00 0.00 39 1011.0
20260504004702 85 202 0.0 0.0 0.00 0.00 0.00 39 1011.0
20260504004158 86 222 0.0 3.0 0.00 0.00 0.00 37 1011.1
20260504003654 86 226 0.0 0.0 0.00 0.00 0.00 38 1011.3
20260504003151 86 248 0.0 0.0 0.00 0.00 0.00 40 1011.1
20260504002648 85 210 0.0 1.0 0.00 0.00 0.00 39 1011.3
20260504002145 85 221 1.0 2.0 0.00 0.00 0.00 38 1011.2
20260504001643 85 230 0.0 1.0 0.00 0.00 0.00 42 1011.3
20260504001139 85 8 2.0 3.0 0.00 0.00 0.00 38 1011.2
20260504000636 84 211 0.0 1.0 0.00 0.00 0.00 42 1011.4
20260504000134 84 207 0.0 2.0 0.00 0.00 0.00 41 1011.5
20260503235632 85 221 2.0 2.0 0.00 0.00 0.00 39 1011.5
20260503235128 84 223 0.0 0.0 0.00 0.00 0.00 42 1011.7
20260503234626 84 53 1.0 5.0 0.00 0.00 0.00 40 1011.4
20260503234124 83 187 1.0 2.0 0.00 0.00 0.00 40 1011.6
20260503233621 82 208 0.0 2.0 0.00 0.00 0.00 44 1011.7
20260503233116 84 225 1.0 3.0 0.00 0.00 0.00 41 1011.8
20260503232613 85 233 1.0 2.0 0.00 0.00 0.00 41 1012.2
20260503232111 84 162 2.0 3.0 0.00 0.00 0.00 42 1011.9
20260503231609 84 208 0.0 2.0 0.00 0.00 0.00 43 1011.9
20260503231105 84 217 2.0 3.0 0.00 0.00 0.00 39 1012.1
20260503230602 85 57 2.0 5.0 0.00 0.00 0.00 37 1012.0
20260503230059 84 222 1.0 1.0 0.00 0.00 0.00 39 1012.0
20260503225556 84 219 2.0 5.0 0.00 0.00 0.00 41 1012.0
20260503225051 84 36 3.0 6.0 0.00 0.00 0.00 38 1012.2
20260503224549 84 43 3.0 6.0 0.00 0.00 0.00 38 1012.2
20260503224047 84 197 0.0 3.0 0.00 0.00 0.00 43 1012.3
20260503223544 85 208 2.0 2.0 0.00 0.00 0.00 40 1012.5
20260503223039 83 207 1.0 2.0 0.00 0.00 0.00 40 1012.3
20260503222538 82 214 2.0 6.0 0.00 0.00 0.00 41 1012.5
20260503222036 83 83 3.0 5.0 0.00 0.00 0.00 41 1012.8
20260503221533 82 68 1.0 5.0 0.00 0.00 0.00 42 1012.8
20260503221031 83 147 2.0 7.0 0.00 0.00 0.00 41 1012.9
20260503220527 84 232 0.0 2.0 0.00 0.00 0.00 39 1012.9
20260503220024 84 216 0.0 3.0 0.00 0.00 0.00 42 1012.8
20260503215521 84 245 1.0 3.0 0.00 0.00 0.00 40 1012.6
20260503215018 85 231 1.0 3.0 0.00 0.00 0.00 37 1012.9
20260503214516 84 224 0.0 3.0 0.00 0.00 0.00 38 1013.1
20260503214012 84 212 1.0 3.0 0.00 0.00 0.00 39 1012.9
20260503213511 84 214 2.0 5.0 0.00 0.00 0.00 41 1012.9
20260503213007 84 46 3.0 3.0 0.00 0.00 0.00 37 1013.1
20260503212505 84 219 1.0 2.0 0.00 0.00 0.00 40 1013.3
20260503212002 83 245 1.0 2.0 0.00 0.00 0.00 40 1013.1
20260503211458 81 236 1.0 2.0 0.00 0.00 0.00 45 1013.2
20260503210949 81 195 2.0 3.0 0.00 0.00 0.00 43 1013.0
20260503210446 80 27 3.0 5.0 0.00 0.00 0.00 43 1013.3
20260503205945 81 7 3.0 6.0 0.00 0.00 0.00 41 1013.4
20260503205443 82 212 0.0 1.0 0.00 0.00 0.00 46 1013.4
20260503204939 81 198 0.0 2.0 0.00 0.00 0.00 45 1013.7
20260503204436 80 210 0.0 2.0 0.00 0.00 0.00 44 1013.6
20260503203933 80 206 2.0 3.0 0.00 0.00 0.00 43 1013.5
20260503203431 79 186 1.0 3.0 0.00 0.00 0.00 44 1013.6
20260503202927 78 193 1.0 3.0 0.00 0.00 0.00 44 1013.6
20260503202426 78 6 4.0 5.0 0.00 0.00 0.00 44 1013.7
20260503201924 78 213 0.0 5.0 0.00 0.00 0.00 46 1013.7
20260503201421 79 40 2.0 2.0 0.00 0.00 0.00 44 1013.8
20260503200918 78 191 0.0 3.0 0.00 0.00 0.00 46 1013.9
20260503200414 79 220 1.0 3.0 0.00 0.00 0.00 47 1014.0
20260503195911 77 208 0.0 2.0 0.00 0.00 0.00 48 1013.9
20260503195409 77 196 1.0 2.0 0.00 0.00 0.00 46 1014.0
20260503194905 76 224 1.0 3.0 0.00 0.00 0.00 48 1014.0
20260503194401 76 262 1.0 6.0 0.00 0.00 0.00 49 1014.1
20260503193857 77 35 3.0 7.0 0.00 0.00 0.00 46 1014.2